Location: Go?cza
(50.3372°N, 19.9313°E)
Time: 22:14:29
(UTC+00:00)

Envisat - Pass Details

Date: 23 May 2024
Orbit: 762 x 764 km, 98.3° (Epoch: 22 June)

Event Time Altitude Azimuth Distance (km) Brightness Sun altitude
Rises 01:30:40 0° 19° (NNE) 3,241 7.7 -9.4°
Reaches altitude 10° 01:33:07 10° 27° (NNE) 2,310 7.0 -9.1°
Maximum altitude 01:37:55 41° 97° (E) 1,098 4.2 -8.6°
Drops below altitude 10° 01:42:41 10° 168° (SSE) 2,292 5.1 -8.1°
Sets 01:45:06 0° 175° (S) 3,213 5.8 -7.8°
